Regional Weather Roundup
Issued by NWS Kansas City/Pleasant Hill, MO

Home | Current Version | Previous Version | Text Only | Print | Product List | Glossary On
Versions: 1 2 3 4 5 6 7 8 9 10 11 12 13 14 15 16 17 18 19 20 21 22 23 24 25 26 27
000
ASUS43 KEAX 100810
RWREAX

WEATHER ROUNDUP FOR EASTERN KANSAS AND NORTHWEST MISSOURI
NATIONAL WEATHER SERVICE KANSAS CITY/PLEASANT HILL MO
200 AM CST SAT DEC 10 2016

KSZ040-057-103>105-MOZ028-029-037-043-100900-
...KANSAS CITY METROPOLITAN AREA...

CITY           SKY/WX    TMP DP  RH WIND       PRES   REMARKS
K.C. INTL      CLOUDY    27  11  51 S6        30.49S WCI  20
K.C. DOWNTOWN  MOCLDY    28  11  48 SE5       30.51R WCI  23
LEES SUMMIT    CLOUDY    26  13  57 SE5       30.50S WCI  20
OLATHE - IXD   CLOUDY    26  15  63 SE5       30.49S WCI  20
OLATHE - OJC   CLOUDY    25  12  58 CALM      30.49R
LAWRENCE       CLOUDY    22  17  81 E5        30.50R WCI  16

$$

MOZ001>008-011>017-020>025-030>033-038>040-044>046-053-054-100900-
...NORTHERN AND CENTRAL MISSOURI...

CITY           SKY/WX    TMP DP  RH WIND       PRES   REMARKS
ST. JOSEPH     CLOUDY    26  14  60 SE5       30.50F WCI  20
MOSBY            N/A     27  14  59 SE3       30.52S
WARRENSBURG    CLOUDY    27  14  59 E3        30.52R
WHITEMAN AFB   CLOUDY    26  12  57 CALM      30.51R
CLINTON        CLOUDY    27  16  63 CALM      30.52S
SEDALIA        CLOUDY    26  12  55 SE7       30.53S WCI  18
WARSAW         NOT AVBL
CHILLICOTHE      N/A     25  11  55 SE3       30.53F
KIRKSVILLE     CLOUDY    23  17  78 CALM      30.54R

$$

MOZ041-047>049-056>058-063>065-088>090-097-100900-
...EASTERN AND SOUTHERN MISSOURI...

CITY           SKY/WX    TMP DP  RH WIND       PRES   REMARKS
ST. LOUIS INTL NOT AVBL
SPIRIT OF STL  CLOUDY    24  18  77 CALM      30.57F
COLUMBIA       CLOUDY    24  12  60 SE7       30.53R WCI  16
JEFFERSON CITY CLOUDY    25  13  60 E5        30.56R WCI  19
ROLLA          CLOUDY    23  12  62 SE8       30.51S WCI  14
OSAGE BEACH    CLOUDY    26  13  57 E5        30.53S WCI  20
SPRINGFIELD    CLOUDY    28  14  55 S8        30.47S WCI  20
BRANSON        CLOUDY    27  14  59 SE7       30.49F WCI  19
JOPLIN         CLOUDY    31  17  56 SE6       30.49S WCI  25
WEST PLAINS    CLEAR     21  13  71 CALM      30.52R

$$

IAZ060-094-KSZ022-034>040-054-083-096-NEZ052-066-093-100900-
...KANSAS...SOUTHEAST NEBRASKA AND IOWA...

CITY           SKY/WX    TMP DP  RH WIND       PRES   REMARKS
TOPEKA         PTCLDY    22  14  71 SE3       30.48F
MANHATTAN      CLOUDY    28  14  55 S6        30.45F WCI  22
EMPORIA        CLOUDY    24  17  74 SE5       30.45F WCI  18
CHANUTE        CLOUDY    30  17  58 CALM      30.48R
WICHITA        CLOUDY    21  13  71 SE7       30.42F WCI  12
OMAHA          CLOUDY    23  12  62 SE6       30.48F WCI  16
LINCOLN        PTCLDY    22  15  75 SE5       30.45F WCI  16
FALLS CITY     CLOUDY    25  16  68 SE5       30.48S WCI  19
LAMONI         CLOUDY    22  12  65 SE3       30.49F
DES MOINES     CLOUDY    23  12  62 CALM      30.51F

$$





USA.gov is the U.S. government's official web portal to all federal, state and local government web resources and services.